C1PG EGKK-LTBS

Flight info

Callsign C1PG
Flight time N/A
Altitude 39000
Route ODVIK Y311 DVR UL9 KONAN DCT KOK DCT REMBA DCT SPI DCT VIBOM DCT NOMBO DCT RIDAR DCT LATLO DCT OBEDI DCT VABEK UL603 OLOTA DCT RUGAS DCT RIKSO UP14 ODNOD UT491 SONUP
Aircraft A339/H-SADE1E2E3GHIJ3J5M1P2RWXY/LB2D1

Departure

Time N/A
Airport London Gatwick Airport (EGKK)

Arrival

Time 2026-04-30 12:26
Airport Dalaman International Airport (LTBS)
Time Latitude Longitude Altitude Speed Heading
2026-04-30 09:45 50.54977 5.45709 31330 ft 467 kts 107°
2026-04-30 09:45 50.53960 5.50552 31330 ft 467 kts 107°
2026-04-30 09:46 50.51914 5.60246 31332 ft 467 kts 107°
2026-04-30 09:46 50.49450 5.69692 31332 ft 468 kts 112°
2026-04-30 09:47 50.46838 5.79071 31331 ft 468 kts 111°
2026-04-30 09:47 50.44240 5.88438 31333 ft 468 kts 111°
2026-04-30 09:48 50.41630 5.97797 31333 ft 468 kts 111°
2026-04-30 09:48 50.39011 6.07139 31340 ft 468 kts 111°
2026-04-30 09:49 50.36385 6.16477 31340 ft 468 kts 111°
2026-04-30 09:49 50.33751 6.25800 31340 ft 468 kts 111°
2026-04-30 09:50 50.31110 6.35115 31337 ft 468 kts 111°
2026-04-30 09:50 50.28460 6.44426 31337 ft 468 kts 111°
2026-04-30 09:51 50.25806 6.53712 31339 ft 468 kts 111°
2026-04-30 09:51 50.23141 6.63004 31342 ft 468 kts 111°
2026-04-30 09:52 50.20469 6.72275 31371 ft 468 kts 111°
2026-04-30 09:52 50.17787 6.81548 31375 ft 469 kts 111°
2026-04-30 09:53 50.15103 6.90794 31381 ft 469 kts 111°
2026-04-30 09:53 50.12403 7.00061 31382 ft 469 kts 111°
2026-04-30 09:54 50.09699 7.09305 31382 ft 469 kts 111°
2026-04-30 09:54 50.06981 7.18561 31383 ft 469 kts 111°
2026-04-30 09:55 50.04260 7.27788 31383 ft 470 kts 111°
2026-04-30 09:55 50.01530 7.37014 31382 ft 470 kts 111°
2026-04-30 09:56 49.98790 7.46242 31384 ft 470 kts 111°
2026-04-30 09:56 49.96039 7.55468 31385 ft 470 kts 111°
2026-04-30 09:57 49.93283 7.64679 31387 ft 470 kts 111°
2026-04-30 09:57 49.90539 7.73812 31389 ft 470 kts 111°
2026-04-30 09:58 49.87768 7.82998 31395 ft 470 kts 111°
2026-04-30 09:58 49.84970 7.92237 31399 ft 470 kts 111°
2026-04-30 09:59 49.79387 8.10579 31399 ft 470 kts 111°
2026-04-30 10:00 49.75679 8.22681 31402 ft 471 kts 111°
2026-04-30 10:01 49.71465 8.36367 31404 ft 471 kts 111°
2026-04-30 10:02 49.67401 8.49492 31407 ft 471 kts 111°
2026-04-30 10:02 49.64923 8.57463 31402 ft 472 kts 111°
2026-04-30 10:03 49.62129 8.66419 31739 ft 472 kts 112°
2026-04-30 10:03 49.60699 8.70997 31402 ft 472 kts 112°
2026-04-30 10:03 49.59273 8.75544 31401 ft 472 kts 112°
2026-04-30 10:04 49.56413 8.84640 31414 ft 473 kts 112°
2026-04-30 10:04 49.53533 8.93768 31398 ft 473 kts 112°
2026-04-30 10:05 49.50650 9.02876 31386 ft 473 kts 112°
2026-04-30 10:05 49.47791 9.11876 31406 ft 473 kts 112°
2026-04-30 10:06 49.44428 9.20755 31397 ft 478 kts 120°
2026-04-30 10:06 49.40762 9.29274 31391 ft 478 kts 119°
2026-04-30 10:07 49.37119 9.37815 31394 ft 479 kts 119°
2026-04-30 10:07 49.33460 9.46365 31383 ft 480 kts 119°
2026-04-30 10:08 49.29787 9.54910 31386 ft 480 kts 119°
2026-04-30 10:08 49.26110 9.63441 31384 ft 480 kts 119°
2026-04-30 10:09 49.22418 9.71977 31386 ft 481 kts 119°
2026-04-30 10:09 49.18718 9.80509 31384 ft 482 kts 120°
2026-04-30 10:10 49.15008 9.89031 31384 ft 482 kts 120°
2026-04-30 10:10 49.11288 9.97551 31380 ft 483 kts 120°
2026-04-30 10:11 49.07527 10.06048 31383 ft 484 kts 122°
2026-04-30 10:11 49.03101 10.13859 31405 ft 490 kts 131°
2026-04-30 10:12 48.98274 10.21114 31400 ft 491 kts 131°
2026-04-30 10:12 48.93431 10.28440 31407 ft 492 kts 131°
2026-04-30 10:13 48.88575 10.35782 31416 ft 492 kts 131°
2026-04-30 10:13 48.83706 10.43119 31414 ft 493 kts 131°
2026-04-30 10:14 48.78829 10.50451 31409 ft 494 kts 131°
2026-04-30 10:14 48.71495 10.61436 31400 ft 495 kts 131°
2026-04-30 10:15 48.66593 10.68749 31394 ft 496 kts 131°
2026-04-30 10:15 48.61676 10.76064 31386 ft 496 kts 131°
2026-04-30 10:16 48.57203 10.83903 31386 ft 490 kts 120°
2026-04-30 10:17 48.51629 10.96798 31387 ft 490 kts 119°
2026-04-30 10:17 48.45988 11.09673 31383 ft 491 kts 119°
2026-04-30 10:18 48.42211 11.18250 31382 ft 492 kts 119°
2026-04-30 10:19 48.36515 11.31130 31379 ft 493 kts 120°
2026-04-30 10:19 48.32706 11.39714 31366 ft 494 kts 120°
2026-04-30 10:20 48.28894 11.48275 31395 ft 495 kts 120°
2026-04-30 10:20 48.23133 11.61160 31403 ft 496 kts 120°
2026-04-30 10:21 48.19281 11.69744 31402 ft 497 kts 120°
2026-04-30 10:21 48.15413 11.78332 31399 ft 497 kts 120°
2026-04-30 10:22 48.11535 11.86920 31396 ft 498 kts 120°
2026-04-30 10:22 48.07672 11.95444 31391 ft 498 kts 120°
2026-04-30 10:23 48.03780 12.04009 31388 ft 499 kts 120°
2026-04-30 10:23 47.99866 12.12592 31368 ft 500 kts 120°
2026-04-30 10:24 47.95951 12.21152 31381 ft 500 kts 121°
2026-04-30 10:24 47.92020 12.29715 31375 ft 501 kts 121°
2026-04-30 10:25 47.88078 12.38281 31374 ft 501 kts 121°
2026-04-30 10:25 47.84126 12.46841 31367 ft 502 kts 121°
2026-04-30 10:26 47.80138 12.55453 31369 ft 502 kts 121°
2026-04-30 10:26 47.76190 12.63950 31371 ft 503 kts 121°
2026-04-30 10:27 47.72201 12.72512 31373 ft 504 kts 121°
2026-04-30 10:27 47.68082 12.80929 31374 ft 507 kts 127°
2026-04-30 10:28 47.63135 12.88477 31370 ft 510 kts 133°
2026-04-30 10:28 47.58094 12.95896 31359 ft 511 kts 133°
2026-04-30 10:29 47.53049 13.03334 31347 ft 513 kts 133°
2026-04-30 10:29 47.47986 13.10771 31330 ft 513 kts 133°
2026-04-30 10:30 47.42906 13.18216 31317 ft 515 kts 133°
2026-04-30 10:30 47.37814 13.25654 31313 ft 516 kts 133°
2026-04-30 10:31 47.32752 13.33157 31315 ft 515 kts 130°
2026-04-30 10:31 47.28390 13.41366 31312 ft 515 kts 125°
2026-04-30 10:32 47.24027 13.49755 31314 ft 517 kts 126°
2026-04-30 10:32 47.19645 13.58151 31318 ft 518 kts 126°
2026-04-30 10:33 47.15240 13.66567 31317 ft 519 kts 126°
2026-04-30 10:33 47.10832 13.74963 31327 ft 519 kts 126°
2026-04-30 10:34 47.06407 13.83359 31334 ft 521 kts 127°
2026-04-30 10:34 47.01962 13.91758 31340 ft 522 kts 127°
2026-04-30 10:35 46.97510 14.00144 31349 ft 522 kts 127°
2026-04-30 10:35 46.93042 14.08533 31360 ft 523 kts 127°
2026-04-30 10:36 46.88565 14.16911 31373 ft 523 kts 127°
2026-04-30 10:36 46.84073 14.25291 31379 ft 524 kts 128°
2026-04-30 10:37 46.79574 14.33663 31377 ft 525 kts 128°
2026-04-30 10:37 46.75059 14.42040 31386 ft 525 kts 128°
2026-04-30 10:38 46.70533 14.50413 31380 ft 526 kts 128°
2026-04-30 10:38 46.65997 14.58776 31384 ft 526 kts 128°
2026-04-30 10:39 46.61449 14.67134 31374 ft 527 kts 128°
2026-04-30 10:39 46.56888 14.75492 31376 ft 528 kts 128°
2026-04-30 10:40 46.52322 14.83837 31375 ft 528 kts 129°
2026-04-30 10:40 46.47738 14.92185 31392 ft 528 kts 129°
2026-04-30 10:41 46.43153 15.00513 31392 ft 529 kts 129°
2026-04-30 10:41 46.38557 15.08833 31396 ft 529 kts 129°
2026-04-30 10:42 46.33949 15.17154 31399 ft 530 kts 129°
2026-04-30 10:42 46.29330 15.25468 31404 ft 530 kts 129°
2026-04-30 10:43 46.25483 15.32377 31406 ft 531 kts 129°
2026-04-30 10:43 46.20848 15.40673 31406 ft 531 kts 129°
2026-04-30 10:44 46.16198 15.48972 31411 ft 532 kts 130°
2026-04-30 10:44 46.11542 15.57259 31410 ft 532 kts 130°
2026-04-30 10:45 46.06877 15.65533 31404 ft 532 kts 130°
2026-04-30 10:45 46.02197 15.73811 31410 ft 533 kts 130°
2026-04-30 10:46 45.97511 15.82074 31408 ft 534 kts 130°
2026-04-30 10:46 45.92814 15.90334 31406 ft 534 kts 130°
2026-04-30 10:47 45.88101 15.98597 31407 ft 535 kts 130°
2026-04-30 10:47 45.83381 16.06847 31409 ft 535 kts 130°
2026-04-30 10:48 45.78648 16.15094 31408 ft 536 kts 131°
2026-04-30 10:48 45.73932 16.23290 31410 ft 537 kts 131°
2026-04-30 10:49 45.69176 16.31532 31406 ft 537 kts 131°
2026-04-30 10:49 45.64408 16.39768 31401 ft 538 kts 131°
2026-04-30 10:50 45.59632 16.47996 31394 ft 538 kts 131°
2026-04-30 10:50 45.54842 16.56221 31388 ft 539 kts 131°
2026-04-30 10:51 45.50043 16.64438 31390 ft 540 kts 131°
2026-04-30 10:51 45.45228 16.72658 31386 ft 540 kts 131°
2026-04-30 10:52 45.40407 16.80867 31384 ft 541 kts 132°
2026-04-30 10:52 45.35578 16.89063 31375 ft 541 kts 132°
2026-04-30 10:53 45.30735 16.97260 31377 ft 541 kts 132°
2026-04-30 10:53 45.25887 17.05441 31378 ft 542 kts 132°
2026-04-30 10:54 45.21028 17.13616 31380 ft 542 kts 132°
2026-04-30 10:54 45.16188 17.21737 31384 ft 543 kts 132°
2026-04-30 10:55 45.11310 17.29897 31386 ft 543 kts 133°
2026-04-30 10:55 45.06427 17.38043 31387 ft 543 kts 133°
2026-04-30 10:56 45.01530 17.46189 31393 ft 544 kts 133°
2026-04-30 10:56 44.96625 17.54322 31389 ft 544 kts 133°
2026-04-30 10:57 44.91709 17.62451 31364 ft 545 kts 133°
2026-04-30 10:57 44.86784 17.70572 31370 ft 545 kts 133°
2026-04-30 10:58 44.81850 17.78682 31361 ft 545 kts 133°
2026-04-30 10:58 44.76911 17.86780 31358 ft 545 kts 133°
2026-04-30 10:59 44.71968 17.94861 31354 ft 545 kts 133°
2026-04-30 10:59 44.67013 18.02936 31352 ft 545 kts 133°
2026-04-30 11:00 44.62055 18.10996 31350 ft 545 kts 133°
2026-04-30 11:00 44.57089 18.19043 31343 ft 545 kts 133°
2026-04-30 11:01 44.52116 18.27082 31341 ft 546 kts 133°
2026-04-30 11:01 44.47140 18.35101 31344 ft 545 kts 133°
2026-04-30 11:02 44.42159 18.43105 31352 ft 545 kts 133°
2026-04-30 11:02 44.37176 18.51090 31348 ft 545 kts 133°
2026-04-30 11:03 44.32199 18.59042 31345 ft 543 kts 134°
2026-04-30 11:04 44.24723 18.70946 31353 ft 544 kts 134°
2026-04-30 11:04 44.19947 18.78526 31337 ft 544 kts 134°
2026-04-30 11:05 44.14954 18.86429 31329 ft 543 kts 134°
2026-04-30 11:05 44.09952 18.94325 31321 ft 543 kts 134°
2026-04-30 11:06 44.04985 19.02142 31326 ft 543 kts 134°
2026-04-30 11:06 43.99950 19.10045 31322 ft 542 kts 134°
2026-04-30 11:07 43.94941 19.17884 31318 ft 542 kts 134°
2026-04-30 11:07 43.89971 19.25642 31313 ft 542 kts 134°
2026-04-30 11:08 43.84959 19.33446 31322 ft 541 kts 134°
2026-04-30 11:08 43.79951 19.41221 31317 ft 541 kts 134°
2026-04-30 11:09 43.74941 19.48977 31324 ft 540 kts 134°
2026-04-30 11:09 43.69925 19.56721 31317 ft 541 kts 134°
2026-04-30 11:10 43.64903 19.64455 31329 ft 541 kts 134°
2026-04-30 11:10 43.59882 19.72168 31321 ft 540 kts 134°
2026-04-30 11:11 43.54851 19.79871 31322 ft 540 kts 134°
2026-04-30 11:11 43.49824 19.87550 31326 ft 540 kts 134°
2026-04-30 11:12 43.44781 19.95232 31327 ft 540 kts 134°
2026-04-30 11:12 43.39737 20.02894 31325 ft 540 kts 134°
2026-04-30 11:13 43.34688 20.10544 31326 ft 540 kts 135°
2026-04-30 11:13 43.29638 20.18177 31319 ft 540 kts 135°
2026-04-30 11:14 43.24581 20.25798 31323 ft 540 kts 135°
2026-04-30 11:14 43.19522 20.33404 31319 ft 540 kts 135°
2026-04-30 11:15 43.14462 20.40998 31311 ft 540 kts 135°
2026-04-30 11:15 43.09400 20.48579 31307 ft 540 kts 135°
2026-04-30 11:16 43.04327 20.56159 31297 ft 540 kts 135°
2026-04-30 11:16 42.99176 20.63606 31290 ft 537 kts 139°
2026-04-30 11:17 42.93755 20.70610 31286 ft 537 kts 139°
2026-04-30 11:17 42.88377 20.77679 31281 ft 537 kts 139°
2026-04-30 11:18 42.82989 20.84717 31279 ft 537 kts 140°
2026-04-30 11:18 42.74883 20.95241 31272 ft 537 kts 140°
2026-04-30 11:19 42.69472 21.02241 31272 ft 537 kts 140°
2026-04-30 11:19 42.64059 21.09228 31272 ft 537 kts 140°
2026-04-30 11:20 42.58639 21.16207 31274 ft 536 kts 140°
2026-04-30 11:20 42.53218 21.23168 31275 ft 537 kts 140°
2026-04-30 11:21 42.47785 21.30128 31273 ft 538 kts 140°
2026-04-30 11:21 42.42350 21.37074 31272 ft 537 kts 140°
2026-04-30 11:22 42.36917 21.43999 31271 ft 536 kts 140°
2026-04-30 11:22 42.31481 21.50910 31261 ft 536 kts 140°
2026-04-30 11:23 42.26040 21.57810 31255 ft 536 kts 140°
2026-04-30 11:24 42.17959 21.68261 31252 ft 537 kts 139°
2026-04-30 11:24 42.12701 21.75312 31241 ft 537 kts 139°
2026-04-30 11:25 42.04703 21.85946 31234 ft 542 kts 141°
2026-04-30 11:26 41.93885 22.00187 31211 ft 543 kts 141°
2026-04-30 11:26 41.88524 22.07221 31188 ft 543 kts 141°
2026-04-30 11:27 41.83078 22.14350 31173 ft 543 kts 141°
2026-04-30 11:27 41.78589 22.20214 31170 ft 542 kts 141°
2026-04-30 11:28 41.70436 22.30828 31158 ft 543 kts 141°
2026-04-30 11:29 41.65011 22.37872 31141 ft 543 kts 141°
2026-04-30 11:29 41.56875 22.48400 31124 ft 543 kts 141°
2026-04-30 11:30 41.48758 22.58863 31116 ft 543 kts 141°
2026-04-30 11:31 41.43323 22.65846 31108 ft 542 kts 141°
2026-04-30 11:31 41.37895 22.72803 31094 ft 542 kts 141°
2026-04-30 11:32 41.32490 22.79809 31079 ft 544 kts 137°
2026-04-30 11:32 41.27546 22.87427 31074 ft 544 kts 135°
2026-04-30 11:33 41.20160 22.98870 31063 ft 543 kts 135°
2026-04-30 11:33 41.15198 23.06515 31057 ft 543 kts 135°
2026-04-30 11:34 41.10265 23.14083 31052 ft 543 kts 135°
2026-04-30 11:34 41.05325 23.21643 31051 ft 541 kts 135°
2026-04-30 11:35 41.00397 23.29162 31049 ft 540 kts 135°
2026-04-30 11:35 40.95472 23.36658 31051 ft 539 kts 135°
2026-04-30 11:36 40.90552 23.44131 31049 ft 538 kts 135°
2026-04-30 11:36 40.85638 23.51575 31054 ft 537 kts 135°
2026-04-30 11:37 40.80888 23.58755 31057 ft 536 kts 135°
2026-04-30 11:37 40.76125 23.65937 31057 ft 535 kts 135°
2026-04-30 11:38 40.71459 23.72955 31063 ft 534 kts 135°
2026-04-30 11:38 40.66564 23.80301 31064 ft 533 kts 134°
2026-04-30 11:39 40.61671 23.87626 31065 ft 532 kts 134°
2026-04-30 11:39 40.56754 23.94970 31069 ft 531 kts 134°
2026-04-30 11:40 40.51906 24.02192 31070 ft 530 kts 134°
2026-04-30 11:40 40.47028 24.09443 31071 ft 529 kts 134°
2026-04-30 11:41 40.42151 24.16675 31071 ft 529 kts 134°
2026-04-30 11:41 40.37273 24.23892 31074 ft 528 kts 134°
2026-04-30 11:42 40.32395 24.31092 31068 ft 528 kts 134°
2026-04-30 11:42 40.27515 24.38278 31076 ft 527 kts 135°
2026-04-30 11:43 40.22636 24.45444 31074 ft 527 kts 135°
2026-04-30 11:43 40.17753 24.52600 31074 ft 527 kts 135°
2026-04-30 11:44 40.12870 24.59740 31075 ft 527 kts 135°
2026-04-30 11:44 40.07987 24.66863 31070 ft 526 kts 135°
2026-04-30 11:45 40.03097 24.73979 31072 ft 526 kts 135°
2026-04-30 11:45 39.98202 24.81086 31070 ft 526 kts 135°
2026-04-30 11:46 39.93308 24.88176 31058 ft 526 kts 135°
2026-04-30 11:46 39.88410 24.95253 31068 ft 526 kts 135°
2026-04-30 11:47 39.83512 25.02316 31066 ft 526 kts 135°
2026-04-30 11:47 39.78608 25.09371 31062 ft 526 kts 135°
2026-04-30 11:48 39.73701 25.16414 31054 ft 525 kts 135°
2026-04-30 11:48 39.68791 25.23444 31050 ft 525 kts 135°
2026-04-30 11:49 39.63881 25.30460 31057 ft 525 kts 135°
2026-04-30 11:49 39.59090 25.37289 31048 ft 525 kts 135°
2026-04-30 11:50 39.54118 25.44361 31048 ft 524 kts 135°
2026-04-30 11:50 39.49206 25.51331 31044 ft 524 kts 135°
2026-04-30 11:51 39.44288 25.58294 31044 ft 524 kts 135°
2026-04-30 11:51 39.39408 25.65188 31042 ft 524 kts 135°
2026-04-30 11:52 39.34491 25.72119 31041 ft 523 kts 135°
2026-04-30 11:52 39.29567 25.79042 31040 ft 523 kts 135°
2026-04-30 11:53 39.24645 25.85949 31038 ft 523 kts 135°
2026-04-30 11:53 39.19721 25.92842 31038 ft 522 kts 135°
2026-04-30 11:54 39.14794 25.99723 31034 ft 522 kts 135°
2026-04-30 11:54 39.09866 26.06594 31028 ft 522 kts 135°
2026-04-30 11:55 39.04935 26.13453 31031 ft 522 kts 135°
2026-04-30 11:55 38.99998 26.20304 31036 ft 522 kts 135°
2026-04-30 11:56 38.95063 26.27137 31044 ft 521 kts 135°
2026-04-30 11:56 38.90133 26.33952 31046 ft 521 kts 135°
2026-04-30 11:57 38.85424 26.41007 31047 ft 523 kts 125°
2026-04-30 11:57 38.83704 26.45129 31049 ft 525 kts 114°
2026-04-30 11:57 38.82570 26.49583 31055 ft 527 kts 103°
2026-04-30 11:58 38.81416 26.58852 31051 ft 527 kts 98°
2026-04-30 11:58 38.80292 26.68134 31043 ft 527 kts 99°
2026-04-30 11:59 38.79141 26.77399 31033 ft 527 kts 99°
2026-04-30 11:59 38.77980 26.86666 31017 ft 526 kts 99°
2026-04-30 12:00 38.76186 26.95717 31015 ft 525 kts 113°
2026-04-30 12:00 38.72554 27.03762 31020 ft 522 kts 129°
2026-04-30 12:01 38.68148 27.11159 31013 ft 522 kts 129°
2026-04-30 12:01 38.63774 27.18582 31012 ft 522 kts 129°
2026-04-30 12:02 38.59401 27.25990 31017 ft 522 kts 129°
2026-04-30 12:02 38.55023 27.33384 31003 ft 522 kts 129°
2026-04-30 12:03 38.48445 27.44466 30995 ft 522 kts 129°
2026-04-30 12:04 38.44081 27.51798 31004 ft 522 kts 129°
2026-04-30 12:04 38.39690 27.59161 31006 ft 521 kts 129°
2026-04-30 12:05 38.35296 27.66511 30995 ft 521 kts 129°
2026-04-30 12:05 38.30899 27.73849 31006 ft 521 kts 129°
2026-04-30 12:06 38.26211 27.80837 31023 ft 518 kts 138°
2026-04-30 12:06 38.20604 27.86503 31024 ft 514 kts 148°
2026-04-30 12:07 38.14735 27.91714 30998 ft 515 kts 147°
2026-04-30 12:07 38.11803 27.94335 30846 ft 518 kts 147°
2026-04-30 12:07 38.08857 27.96971 30508 ft 514 kts 147°
2026-04-30 12:07 38.05989 27.99539 30161 ft 497 kts 147°
2026-04-30 12:08 38.03201 28.02035 29786 ft 484 kts 147°
2026-04-30 12:08 38.00480 28.04464 29385 ft 473 kts 147°
2026-04-30 12:08 37.97817 28.06839 28993 ft 463 kts 147°
2026-04-30 12:08 37.95209 28.09161 28607 ft 456 kts 147°
2026-04-30 12:09 37.92613 28.11467 28223 ft 455 kts 147°
2026-04-30 12:09 37.90021 28.13768 27847 ft 454 kts 147°
2026-04-30 12:09 37.88311 28.15287 27601 ft 453 kts 147°
2026-04-30 12:09 37.85743 28.17566 27230 ft 450 kts 147°
2026-04-30 12:10 37.83190 28.19831 26878 ft 447 kts 147°
2026-04-30 12:10 37.80620 28.22108 26521 ft 444 kts 147°
2026-04-30 12:10 37.78128 28.24314 26175 ft 442 kts 147°
2026-04-30 12:10 37.75618 28.26535 25833 ft 439 kts 148°
2026-04-30 12:11 37.73125 28.28738 25494 ft 436 kts 148°
2026-04-30 12:11 37.70648 28.30925 25151 ft 434 kts 148°
2026-04-30 12:11 37.68179 28.33103 24802 ft 431 kts 148°
2026-04-30 12:11 37.65734 28.35259 24361 ft 428 kts 148°
2026-04-30 12:12 37.63304 28.37401 23826 ft 424 kts 148°
2026-04-30 12:12 37.60900 28.39517 23187 ft 420 kts 148°
2026-04-30 12:12 37.58512 28.41615 22490 ft 416 kts 148°
2026-04-30 12:12 37.56148 28.43691 21845 ft 412 kts 148°
2026-04-30 12:13 37.53811 28.45744 21204 ft 408 kts 148°
2026-04-30 12:13 37.51492 28.47776 20563 ft 404 kts 148°
2026-04-30 12:13 37.49098 28.49568 19916 ft 398 kts 156°
2026-04-30 12:13 37.46567 28.50886 19287 ft 391 kts 164°
2026-04-30 12:14 37.43969 28.51814 18667 ft 386 kts 168°
2026-04-30 12:14 37.41388 28.52702 18096 ft 381 kts 167°
2026-04-30 12:14 37.38880 28.53580 17784 ft 368 kts 167°
2026-04-30 12:14 37.36449 28.54444 17410 ft 358 kts 167°
2026-04-30 12:15 37.34083 28.55286 17047 ft 349 kts 167°
2026-04-30 12:15 37.31772 28.56107 16687 ft 341 kts 167°
2026-04-30 12:15 37.29514 28.56907 16324 ft 333 kts 167°
2026-04-30 12:15 37.27342 28.57675 15975 ft 325 kts 167°
2026-04-30 12:16 37.25192 28.58438 15627 ft 318 kts 167°
2026-04-30 12:16 37.23081 28.59182 15283 ft 311 kts 167°
2026-04-30 12:16 37.21017 28.59913 14940 ft 305 kts 167°
2026-04-30 12:16 37.18998 28.60632 14602 ft 298 kts 167°
2026-04-30 12:17 37.15066 28.62021 13942 ft 294 kts 167°
2026-04-30 12:17 37.13065 28.62726 13584 ft 293 kts 166°
2026-04-30 12:17 37.11117 28.63411 13215 ft 289 kts 166°
2026-04-30 12:18 37.09204 28.64122 12840 ft 285 kts 160°
2026-04-30 12:18 37.07517 28.65422 12494 ft 285 kts 144°
2026-04-30 12:18 37.05924 28.66913 12150 ft 286 kts 144°
2026-04-30 12:18 37.04491 28.68603 12026 ft 286 kts 135°
2026-04-30 12:19 37.02819 28.70024 12018 ft 297 kts 159°
2026-04-30 12:19 37.00906 28.71051 12019 ft 299 kts 155°
2026-04-30 12:19 36.99081 28.72280 12015 ft 297 kts 151°
2026-04-30 12:19 36.97310 28.73586 11830 ft 293 kts 150°
2026-04-30 12:20 36.95565 28.74873 11149 ft 290 kts 150°
2026-04-30 12:20 36.93835 28.76207 10214 ft 295 kts 142°
2026-04-30 12:20 36.92496 28.78108 9275 ft 298 kts 122°
2026-04-30 12:20 36.91371 28.80331 8265 ft 301 kts 122°
2026-04-30 12:21 36.90268 28.82520 7322 ft 302 kts 122°
2026-04-30 12:21 36.89093 28.84687 6371 ft 303 kts 131°
2026-04-30 12:21 36.87444 28.86296 5377 ft 301 kts 154°
2026-04-30 12:21 36.85451 28.86964 4575 ft 295 kts 178°
2026-04-30 12:22 36.83495 28.86568 4085 ft 278 kts 200°
2026-04-30 12:22 36.81784 28.85595 3458 ft 263 kts 214°
2026-04-30 12:22 36.80684 28.83887 2615 ft 246 kts 241°
2026-04-30 12:22 36.79869 28.82151 1897 ft 225 kts 231°
2026-04-30 12:23 36.78601 28.81218 1332 ft 210 kts 193°
2026-04-30 12:23 36.77164 28.80980 886 ft 200 kts 187°
2026-04-30 12:23 36.76928 28.80944 829 ft 198 kts 188°
2026-04-30 12:23 36.76543 28.80878 758 ft 194 kts 189°
2026-04-30 12:24 36.75518 28.80661 505 ft 187 kts 194°
2026-04-30 12:25 36.75201 28.80567 507 ft 181 kts 194°
2026-04-30 12:25 36.74004 28.80171 247 ft 174 kts 198°
2026-04-30 12:25 36.72908 28.79796 97 ft 157 kts 196°
2026-04-30 12:26 36.71922 28.79455 20 ft 131 kts 195°
2026-04-30 12:26 36.71275 28.79235 18 ft 48 kts 193°
2026-04-30 12:26 36.71026 28.79153 19 ft 32 kts 196°
2026-04-30 12:26 36.70845 28.79087 19 ft 23 kts 196°
2026-04-30 12:27 36.70716 28.79011 19 ft 20 kts 222°
2026-04-30 12:27 36.70608 28.78910 20 ft 12 kts 218°
2026-04-30 12:27 36.70592 28.78835 19 ft 6 kts 298°
2026-04-30 12:27 36.70630 28.78813 19 ft 6 kts 356°
2026-04-30 12:28 36.70674 28.78821 19 ft 0 kts 13°
2026-04-30 12:28 36.74106 28.80210 260 ft 175 kts 197°
2026-04-30 12:31 36.74088 28.80203 258 ft 175 kts 197°
2026-04-30 12:31 36.72969 28.79816 101 ft 158 kts 196°
2026-04-30 12:31 36.71975 28.79473 20 ft 133 kts 196°